Location: Granada Hills
(34.2650°N, 118.5220°W)
Time: 01:58:03
(UTC-07:00)

deb Kosmos-1763 - Visible Passes

Search period start: 29 August 2016 00:00
Search period end: 08 September 2016 00:00
Orbit: 507 x 526 km, 74.0° (Epoch: 28 August)

Date Brightness Start Highest point End Pass type
(mag) Time Alt. Az. Time Alt. Az. Time Alt. Az.
31 Aug 7.8 06:02:05 10° ESE 06:03:08 11° E 06:04:11 10° E visible
06 Sep 4.2 06:04:40 10° SSW 06:08:31 67° WNW 06:12:22 10° N visible
07 Sep 4.1 05:49:30 10° SSW 05:53:21 74° WNW 05:57:13 10° NNE visible
